Tracking 32938 objects as of 12-Jan-2026
HD Live streaming from Space Station
objects crossing your sky now

STARLINK-31136

Track STARLINK-31136 now!
10-day predictions
STARLINK-31136 is classified as:


NORAD ID: 58772
Int'l Code: 2024-011H
Perigee: 481.6 km
Apogee: 483.2 km
Inclination: 53.2 °
Period: 94.1 minutes
Semi major axis: 6853 km
RCS: Unknown
Launch date: January 14, 2024
Source: United States (US)
Launch site: AIR FORCE WESTERN TEST RANGE (AFWTR)
Your satellite tracking list
Your tracking list is empty




NASA's NSSDC Master Catalog

Two Line Element Set (TLE):
1 58772U 24011H   26012.01841798 -.00000795  00000-0 -14733-4 0  9991
2 58772  53.1586 276.9063 0001204 100.6404 259.4733 15.30178259111584
Source of the keplerian elements: AFSPC